When you browse on this site, cookies collect data to enhance your experience and personalize the content and advertising you see.
Visit our Privacy Policy to learn more. By continuing to use the site, you agree to this use of cookies and data.
  • In Lithuania
  • List of Countries
  • For 7 days
  • Water Temperature
  • Weather Map
  • Weather Widgets
  • user-avatar
    Login

    Hourly Weather Smolina

    Today, 27 January, Monday

    Time Temperature Precipitation Wind Pressure Humidity
    00:00 -1°C° 0 mm 2 mps 752 mmHg 70%
    01:00 -1°C° 0 mm 2 mps 752 mmHg 71%
    02:00 -1°C° 0 mm 2 mps 752 mmHg 71%
    03:00 +1°C° 0 mm 2 mps 752 mmHg 72%
    04:00 +1°C° 0 mm 2 mps 751 mmHg 73%
    05:00 +1°C° 0 mm 2 mps 751 mmHg 73%
    06:00 +1°C° 0 mm 2 mps 751 mmHg 73%
    07:00 +1°C° 0 mm 2 mps 751 mmHg 74%
    08:00 0°C° 0 mm 3 mps 751 mmHg 72%
    09:00 +1°C° 0 mm 3 mps 751 mmHg 71%
    10:00 +2°C° 0 mm 3 mps 751 mmHg 70%
    11:00 +2°C° 0 mm 3 mps 750 mmHg 73%
    12:00 +2°C° 0 mm 3 mps 750 mmHg 77%
    13:00 +2°C° 0 mm 3 mps 750 mmHg 81%
    14:00 +2°C° 0 mm 3 mps 749 mmHg 82%
    15:00 +2°C° 0 mm 3 mps 749 mmHg 84%
    16:00 +2°C° 0 mm 3 mps 749 mmHg 85%
    17:00 +2°C° 0 mm 3 mps 749 mmHg 86%
    18:00 +1°C° 0 mm 3 mps 748 mmHg 87%
    19:00 +1°C° 0 mm 3 mps 748 mmHg 88%
    20:00 0°C° 0 mm 4 mps 748 mmHg 89%
    21:00 0°C° 0 mm 4 mps 747 mmHg 89%
    22:00 -1°C° 0 mm 4 mps 747 mmHg 90%
    23:00 -1°C° 0 mm 4 mps 746 mmHg 90%

    Tomorrow, 28 January, Tuesday

    Time Temperature Precipitation Wind Pressure Humidity
    00:00 -1°C° 0 mm 4 mps 746 mmHg 89%
    01:00 -1°C° 0 mm 4 mps 745 mmHg 89%
    02:00 -1°C° 0 mm 4 mps 745 mmHg 89%
    03:00 0°C° 0 mm 4 mps 744 mmHg 88%
    04:00 0°C° 0 mm 4 mps 743 mmHg 88%
    05:00 0°C° 0 mm 5 mps 742 mmHg 87%
    06:00 0°C° 0 mm 5 mps 742 mmHg 86%
    07:00 +1°C° 0 mm 5 mps 741 mmHg 85%
    08:00 +1°C° 0 mm 6 mps 741 mmHg 82%
    09:00 +2°C° 0 mm 6 mps 740 mmHg 79%
    10:00 +2°C° 0 mm 7 mps 740 mmHg 76%
    11:00 +3°C° 0.1 mm 7 mps 739 mmHg 75%
    12:00 +3°C° 0.1 mm 7 mps 738 mmHg 74%
    13:00 +4°C° 0.1 mm 7 mps 738 mmHg 72%
    14:00 +4°C° 0 mm 6 mps 737 mmHg 73%
    15:00 +3°C° 0 mm 5 mps 737 mmHg 74%
    16:00 +4°C° 0 mm 4 mps 737 mmHg 75%
    17:00 +3°C° 0 mm 5 mps 736 mmHg 76%
    18:00 +3°C° 0 mm 5 mps 736 mmHg 77%
    19:00 +2°C° 0 mm 6 mps 736 mmHg 79%
    20:00 +2°C° 0 mm 6 mps 736 mmHg 80%
    21:00 +2°C° 0 mm 7 mps 736 mmHg 81%
    22:00 0°C° 0 mm 7 mps 736 mmHg 82%
    23:00 0°C° 0 mm 7 mps 737 mmHg 79%

    Day after tomorrow, 29 January, Wednesday

    Time Temperature Precipitation Wind Pressure Humidity
    00:00 0°C° 0 mm 7 mps 737 mmHg 75%
    01:00 0°C° 0 mm 7 mps 737 mmHg 72%
    02:00 -1°C° 0 mm 6 mps 737 mmHg 71%
    03:00 -1°C° 0 mm 6 mps 738 mmHg 70%
    04:00 -2°C° 0 mm 6 mps 738 mmHg 69%
    05:00 -2°C° 0 mm 6 mps 738 mmHg 72%
    06:00 -2°C° 0 mm 5 mps 738 mmHg 74%
    07:00 -2°C° 0 mm 5 mps 738 mmHg 77%
    08:00 -1°C° 0 mm 5 mps 738 mmHg 75%
    09:00 -1°C° 0 mm 6 mps 738 mmHg 72%
    10:00 -1°C° 0 mm 6 mps 738 mmHg 69%
    11:00 +1°C° 0 mm 6 mps 738 mmHg 70%
    12:00 +1°C° 0 mm 6 mps 738 mmHg 71%
    13:00 +1°C° 0 mm 6 mps 738 mmHg 71%
    14:00 +1°C° 0 mm 6 mps 738 mmHg 76%
    15:00 -1°C° 0 mm 6 mps 738 mmHg 82%
    16:00 -1°C° 0 mm 7 mps 738 mmHg 87%
    17:00 -1°C° 0.1 mm 7 mps 738 mmHg 89%
    18:00 -1°C° 0.1 mm 6 mps 738 mmHg 92%
    19:00 -1°C° 0.1 mm 6 mps 739 mmHg 95%
    20:00 -1°C° 0.4 mm 7 mps 739 mmHg 95%
    21:00 -1°C° 0.4 mm 7 mps 739 mmHg 95%
    22:00 -1°C° 0.4 mm 7 mps 739 mmHg 95%
    23:00 -1°C° 0.9 mm 7 mps 740 mmHg 95%

    30 January, Thursday

    Time Temperature Precipitation Wind Pressure Humidity
    00:00 -1°C° 0.9 mm 8 mps 740 mmHg 94%
    01:00 -1°C° 0.9 mm 8 mps 741 mmHg 94%
    02:00 -1°C° 0.7 mm 8 mps 742 mmHg 93%
    03:00 0°C° 0.7 mm 9 mps 742 mmHg 92%
    04:00 0°C° 0.7 mm 9 mps 743 mmHg 91%
    05:00 0°C° 0.2 mm 9 mps 744 mmHg 89%
    06:00 0°C° 0.2 mm 8 mps 744 mmHg 86%
    07:00 0°C° 0.2 mm 8 mps 745 mmHg 84%
    08:00 0°C° 0.1 mm 8 mps 746 mmHg 82%
    09:00 0°C° 0.1 mm 9 mps 746 mmHg 80%
    10:00 0°C° 0.1 mm 9 mps 747 mmHg 78%
    11:00 +1°C° 0 mm 8 mps 747 mmHg 77%
    12:00 +1°C° 0 mm 8 mps 748 mmHg 75%
    13:00 +1°C° 0 mm 8 mps 748 mmHg 73%
    14:00 0°C° 0 mm 7 mps 748 mmHg 79%
    15:00 0°C° 0 mm 7 mps 748 mmHg 86%
    16:00 -1°C° 0 mm 6 mps 747 mmHg 92%
    17:00 -1°C° 0.1 mm 7 mps 747 mmHg 93%
    18:00 -1°C° 0.1 mm 7 mps 747 mmHg 93%
    19:00 -1°C° 0.1 mm 7 mps 747 mmHg 94%
    20:00 0°C° 0 mm 7 mps 747 mmHg 91%
    21:00 0°C° 0 mm 7 mps 747 mmHg 88%
    22:00 +1°C° 0 mm 6 mps 747 mmHg 85%
    23:00 -1°C° 0 mm 6 mps 747 mmHg 85%

    31 January, Friday

    Time Temperature Precipitation Wind Pressure Humidity
    00:00 0°C° 0 mm 5 mps 746 mmHg 85%
    01:00 -1°C° 0 mm 4 mps 746 mmHg 85%
    02:00 -1°C° 0 mm 4 mps 746 mmHg 85%
    03:00 -1°C° 0 mm 4 mps 746 mmHg 84%
    04:00 -1°C° 0 mm 4 mps 745 mmHg 84%
    05:00 -1°C° 0 mm 4 mps 745 mmHg 82%
    06:00 -1°C° 0 mm 4 mps 745 mmHg 80%
    07:00 -1°C° 0 mm 4 mps 744 mmHg 79%
    08:00 0°C° 0 mm 4 mps 744 mmHg 75%
    09:00 0°C° 0 mm 4 mps 744 mmHg 71%
    10:00 +1°C° 0 mm 4 mps 744 mmHg 67%
    11:00 +1°C° 0 mm 4 mps 743 mmHg 70%
    12:00 +1°C° 0 mm 4 mps 743 mmHg 73%
    13:00 +3°C° 0 mm 3 mps 743 mmHg 77%
    14:00 +2°C° 0.1 mm 3 mps 743 mmHg 82%
    15:00 +2°C° 0.1 mm 3 mps 743 mmHg 87%
    16:00 +3°C° 0.1 mm 2 mps 743 mmHg 92%
    17:00 +2°C° 0 mm 3 mps 744 mmHg 93%
    18:00 +2°C° 0 mm 3 mps 745 mmHg 94%
    19:00 +2°C° 0 mm 3 mps 745 mmHg 96%
    20:00 +3°C° 0 mm 3 mps 746 mmHg 96%
    21:00 +3°C° 0 mm 3 mps 746 mmHg 95%
    22:00 +3°C° 0 mm 3 mps 747 mmHg 95%
    23:00 +4°C° 0 mm 4 mps 747 mmHg 94%

    1 February, Saturday

    Time Temperature Precipitation Wind Pressure Humidity
    00:00 +4°C° 0 mm 4 mps 747 mmHg 93%
    01:00 +3°C° 0 mm 5 mps 748 mmHg 92%
    02:00 +3°C° 0 mm 5 mps 747 mmHg 91%
    03:00 +4°C° 0 mm 4 mps 747 mmHg 90%
    04:00 +4°C° 0 mm 4 mps 747 mmHg 89%
    05:00 +3°C° 0.2 mm 5 mps 747 mmHg 89%
    06:00 +3°C° 0.2 mm 5 mps 747 mmHg 90%
    07:00 +3°C° 0.2 mm 6 mps 747 mmHg 91%
    08:00 +3°C° 0.2 mm 6 mps 747 mmHg 91%
    09:00 +4°C° 0.2 mm 6 mps 747 mmHg 91%
    10:00 +4°C° 0.2 mm 6 mps 747 mmHg 90%
    11:00 +4°C° 0.3 mm 6 mps 746 mmHg 91%
    12:00 +4°C° 0.3 mm 6 mps 746 mmHg 91%
    13:00 +4°C° 0.3 mm 6 mps 746 mmHg 92%
    14:00 +6°C° 0 mm 5 mps 746 mmHg 92%
    15:00 +6°C° 0 mm 5 mps 746 mmHg 91%
    16:00 +7°C° 0 mm 4 mps 746 mmHg 91%
    17:00 +7°C° 0 mm 4 mps 746 mmHg 91%
    18:00 +7°C° 0 mm 5 mps 746 mmHg 91%
    19:00 +7°C° 0 mm 5 mps 746 mmHg 90%
    20:00 +7°C° 0.1 mm 5 mps 745 mmHg 90%
    21:00 +7°C° 0.1 mm 5 mps 745 mmHg 89%
    22:00 +7°C° 0.1 mm 6 mps 745 mmHg 88%
    23:00 +7°C° 1.3 mm 6 mps 744 mmHg 89%
    Show more